Theta_e
327 327 330 331 330 328 322 322 321 322 324 321 320 319 318 319 319 319 319 318 316 316 318 321 323 323 323 322 323 323 323 323 323 322 321 321 320 321 321 321 321 321 321
323 327 328 330 330 328 323 321 322 325 323 321 320 320 319 319 319 319 319 319 318 317 316 316 317 320 321 321 321 321 321 321 320 321 320 320 320 319 320 320 320 320 321
323 324 326 329 329 328 324 324 324 325 323 321 321 320 320 320 319 319 319 318 319 318 318 318 318 318 318 320 320 320 320 320 319 318 318 319 319 320 320 319 319 318 318
323 324 326 328 329 327 326 324 321 321 322 320 321 321 321 321 320 320 320 319 318 319 319 319 319 319 318 317 318 318 318 318 317 317 319 319 318 317 317 316 315 315 314
324 324 327 327 328 327 325 323 321 320 320 320 321 321 322 322 323 322 322 321 321 320 319 319 320 319 318 316 316 317 318 318 319 318 317 316 314 313 313 312 311 310 308
324 325 326 327 327 326 326 324 322 320 319 320 321 322 323 323 323 322 323 323 321 321 320 319 319 318 316 315 317 317 317 316 315 313 311 310 309 309 308 308 307 307 307
324 324 322 325 325 325 325 324 321 320 321 322 322 321 321 322 321 323 323 322 321 319 318 318 318 316 315 314 313 314 313 313 312 310 306 305 306 306 306 306 306 306 305
324 323 323 326 326 325 324 322 321 321 321 321 322 323 320 322 323 320 317 316 317 319 318 317 316 315 314 312 313 314 312 309 306 303 304 304 304 304 304 304 304 304 305
323 324 324 325 324 324 325 323 322 322 322 322 322 322 318 316 317 316 316 315 316 315 314 313 313 312 312 312 311 310 306 304 297 300 301 301 301 302 303 303 303 304 304
319 322 324 324 324 325 325 325 323 322 323 323 322 323 321 320 317 318 315 316 316 315 314 314 314 312 310 307 305 303 298 294 294 296 298 299 300 300 301 302 301 302 303
314 320 321 324 324 325 324 325 324 324 323 322 322 322 321 321 320 318 317 315 315 313 312 311 308 306 304 303 301 294 293 294 294 296 296 297 297 298 299 300 301 302 302
309 315 318 321 323 324 324 325 324 323 323 323 322 321 320 320 320 319 317 318 315 306 306 305 304 303 301 299 298 292 292 293 295 294 295 295 296 297 298 299 300 301 302
306 309 314 317 321 323 323 323 324 323 323 323 322 321 320 320 320 320 319 317 315 304 301 299 299 299 299 297 294 291 290 292 293 293 293 294 295 296 297 298 300 301 302
303 305 310 313 317 322 324 324 323 321 321 321 321 321 321 321 320 320 319 317 315 308 302 297 295 296 296 296 293 290 290 291 292 292 292 294 295 296 297 298 299 300 302
301 304 308 310 314 318 322 324 323 322 321 322 321 321 321 320 320 320 319 318 317 315 307 297 295 294 294 294 292 290 290 291 290 292 292 293 293 294 295 296 297 299 301
300 301 305 310 311 314 320 321 322 321 321 320 320 320 319 320 320 319 318 318 317 317 304 299 294 293 292 291 289 289 290 290 291 291 291 292 293 294 295 296 296 298 297
300 301 303 308 310 314 316 319 320 320 321 320 319 319 319 319 318 318 317 317 316 315 300 294 292 291 290 289 287 289 290 290 291 291 291 292 293 294 294 295 296 296 297
299 300 303 307 310 313 316 319 320 319 319 318 318 318 318 317 315 315 315 314 314 314 308 295 290 289 289 287 287 289 290 290 291 291 292 292 294 294 294 294 295 295 297
298 301 305 307 309 312 315 316 317 317 316 315 314 314 312 312 311 312 313 313 312 312 310 303 292 290 288 287 287 288 289 290 291 291 292 293 294 294 294 294 294 295 296
299 302 304 306 309 311 312 313 314 314 313 312 310 310 310 311 309 309 309 309 309 308 306 301 292 288 287 287 287 287 288 290 291 291 292 293 294 294 294 293 294 295 296
300 301 303 305 306 308 309 311 311 310 310 308 307 308 307 307 306 305 303 302 303 303 300 296 290 288 286 287 287 288 288 290 291 292 292 293 294 294 293 293 294 294 295
299 301 302 304 305 307 307 308 309 307 306 305 303 303 301 299 299 299 297 296 297 299 297 293 290 288 287 288 288 288 288 289 289 291 291 292 294 292 292 292 293 293 293
297 298 300 302 303 303 305 306 306 306 305 303 302 299 299 294 294 293 292 293 293 292 291 291 290 289 288 288 288 287 287 289 290 290 292 291 293 292 292 293 293 293 293
296 296 296 298 300 299 301 302 303 303 302 300 298 296 295 293 292 291 290 290 290 290 291 291 290 289 289 288 288 288 288 289 288 289 291 291 291 291 292 293 293 292 292
299 298 296 296 298 297 298 297 298 298 297 295 294 293 292 291 290 289 290 290 288 289 288 289 289 288 288 288 288 288 287 288 287 287 290 292 291 291 291 292 292 291 291
295 296 297 297 296 295 294 295 296 296 295 292 291 290 290 289 289 289 289 289 288 287 287 287 287 287 287 287 287 287 288 289 287 287 290 291 292 291 290 291 291 292 291
Wind_Speed
15 16 20 26 29 24 24 24 20 18 14 12 11 10 9 8 6 5 1 1 1 1 2 2 5 7 9 10 11 12 13 13 13 14 14 16 16 17 17 19 20 21 21
22 17 21 27 28 29 26 24 22 20 16 13 11 10 8 7 6 5 3 2 4 4 5 4 5 7 8 10 11 12 14 14 13 14 15 17 17 19 19 18 18 18 18
21 23 23 27 31 29 27 26 23 19 15 16 12 11 9 7 5 4 3 3 4 5 5 6 7 8 8 9 10 11 13 13 13 14 15 16 17 16 15 17 19 20 21
31 28 26 28 29 30 28 27 21 20 18 16 13 10 9 6 5 6 6 6 5 5 5 6 7 9 9 11 10 10 9 10 11 13 13 12 13 17 19 19 20 21 22
35 30 27 27 30 29 27 25 24 21 20 16 13 12 9 6 4 5 5 7 7 7 8 7 7 8 9 9 8 9 9 10 9 9 12 14 16 17 19 19 19 19 20
32 26 25 27 26 25 24 24 23 21 18 13 11 9 9 8 10 9 8 7 8 7 8 5 6 6 6 7 10 9 10 11 11 13 14 16 17 16 16 17 17 18 18
28 24 21 19 24 26 26 23 21 22 16 14 11 8 11 12 11 5 8 6 4 6 4 1 1 1 5 6 7 8 8 8 10 13 15 16 16 16 17 17 18 18 19
20 19 22 21 20 21 24 23 23 21 16 16 8 5 1 2 6 3 3 2 4 4 5 6 7 6 4 5 5 5 6 10 13 15 16 16 17 17 18 19 20 21 21
10 15 15 18 20 21 24 26 23 24 18 18 15 4 2 2 6 5 6 8 9 9 7 6 4 2 1 3 4 5 7 11 14 16 16 17 17 18 18 18 20 22 23
6 8 11 14 17 19 19 24 27 25 21 19 14 12 5 4 2 2 7 9 10 9 4 1 1 1 1 3 5 7 10 13 13 14 15 17 18 19 19 20 22 23 25
7 3 7 11 14 15 16 19 24 22 19 18 17 11 11 6 4 2 3 5 4 3 3 2 1 2 3 4 6 9 12 13 15 15 16 18 19 19 21 23 23 25 27
8 5 3 8 9 14 20 13 15 20 21 17 18 11 10 6 8 6 3 3 6 3 3 2 3 3 3 4 6 11 12 14 15 17 18 19 20 21 23 24 26 28 30
8 6 2 2 13 10 15 22 14 14 16 17 15 14 12 10 9 11 11 5 4 5 4 3 3 3 4 5 8 12 10 14 16 16 17 20 20 22 23 26 28 29 29
6 6 6 1 5 12 13 16 19 15 15 15 14 12 11 11 13 13 13 8 2 3 3 4 3 4 5 6 7 10 11 14 16 16 18 20 21 23 26 27 27 30 30
7 5 3 2 1 7 14 15 19 21 15 11 9 9 12 12 12 14 18 16 8 2 2 4 3 4 5 6 9 8 11 13 15 18 19 20 23 24 25 26 28 29 31
6 5 4 5 4 2 12 15 16 13 10 9 9 8 7 7 7 9 8 8 7 7 3 3 3 6 6 7 9 8 11 14 18 19 19 21 23 23 24 26 27 28 31
7 5 4 3 4 3 5 8 10 11 11 9 8 7 5 5 8 4 4 5 5 8 9 5 6 9 8 7 8 10 11 14 17 20 21 20 21 22 25 25 27 27 29
3 3 1 2 3 4 6 7 9 8 11 9 6 5 4 5 6 4 4 8 9 7 9 11 13 9 10 8 10 11 12 14 15 18 18 17 20 21 24 26 28 27 24
3 2 4 4 5 5 6 7 7 8 9 8 8 7 7 6 7 8 7 7 9 10 8 12 12 11 12 11 12 12 11 13 15 17 16 18 19 20 25 27 27 28 24
6 5 6 7 8 8 9 10 10 10 11 10 11 11 10 8 6 6 6 6 8 8 10 16 12 12 11 14 13 15 14 14 17 16 16 18 17 18 22 25 26 26 24
9 9 9 10 10 11 10 9 10 12 13 14 13 11 10 7 7 6 6 6 6 10 14 15 15 10 11 16 13 11 18 17 17 17 15 16 15 18 22 25 23 22 23
12 12 13 13 12 13 11 11 12 14 14 13 13 11 9 8 7 5 5 6 8 9 12 14 11 15 15 13 15 19 20 11 5 11 15 16 15 18 21 22 19 19 21
13 14 14 14 15 14 12 12 11 12 12 11 10 10 10 10 9 8 8 8 9 10 9 8 17 15 16 15 17 21 16 8 10 16 14 15 14 14 14 17 15 14 15
13 14 13 12 13 13 11 9 9 10 10 10 9 8 8 8 7 8 9 12 12 10 7 10 11 12 11 15 14 14 16 17 15 13 12 6 12 13 12 11 11 12 12
10 11 12 11 10 10 10 9 8 8 9 9 8 6 6 7 8 8 8 11 12 13 12 12 11 12 15 15 12 16 21 22 7 7 8 11 9 11 11 10 10 8 9
9 9 9 7 8 8 7 7 6 6 7 7 6 5 6 6 7 6 7 9 13 13 12 13 13 12 11 15 16 15 17 13 8 6 15 9 14 8 3 6 7 5 5
Wind_Direction
233 211 193 188 186 181 175 173 167 174 184 178 167 173 175 154 143 136 112 350 240 224 241 280 310 322 339 340 345 343 342 344 347 344 343 336 336 333 332 331 328 324 327
227 219 202 190 192 184 181 180 178 181 181 183 180 184 187 176 171 174 197 269 292 281 280 293 301 312 326 328 331 335 333 334 334 341 338 335 334 331 328 328 335 345 342
208 223 204 193 188 190 187 180 182 180 183 183 186 194 201 203 201 211 234 237 266 295 301 300 306 309 322 329 333 335 333 336 341 340 335 334 336 339 353 350 348 343 339
211 219 200 194 189 190 191 185 181 185 195 190 186 198 193 213 220 236 250 267 265 279 295 312 320 314 315 324 337 348 347 344 339 335 342 353 351 345 348 344 338 335 329
210 207 199 193 199 189 190 192 187 189 183 190 190 206 199 215 246 265 273 278 290 277 271 283 306 328 335 336 6 13 9 2 16 1 349 339 343 342 346 342 341 342 340
199 199 194 192 196 188 175 177 187 194 193 194 199 203 206 226 242 246 256 275 286 281 290 297 305 313 320 336 52 44 35 3 6 5 357 344 349 351 348 350 349 348 346
190 192 199 195 185 185 181 184 182 184 186 196 195 228 254 242 261 258 268 255 261 279 297 282 225 245 270 321 357 29 26 15 358 353 360 10 7 0 358 356 352 349 346
173 177 200 181 177 185 180 176 180 178 186 188 177 167 279 245 227 204 271 263 227 218 218 217 214 212 257 324 6 24 17 10 7 15 18 17 11 6 5 360 353 352 347
149 164 169 180 191 192 185 183 189 186 180 193 194 163 100 186 128 107 83 82 94 127 157 170 175 143 18 29 38 26 19 5 18 22 21 22 18 13 8 1 356 353 347
92 158 184 183 190 193 199 192 192 195 188 187 200 221 186 134 137 121 118 117 140 148 164 136 93 102 112 75 50 31 21 19 17 28 30 29 22 13 10 5 1 352 347
67 149 188 197 217 199 202 196 199 196 190 183 189 193 213 191 201 166 172 159 166 149 167 180 147 95 92 70 56 38 35 33 28 30 32 28 25 17 11 7 2 356 351
46 77 226 214 217 219 211 184 212 200 198 192 194 191 180 168 198 203 195 163 176 180 187 176 155 135 105 80 56 48 39 37 37 31 30 31 29 21 13 9 5 3 358
38 44 64 187 215 217 221 207 206 192 205 187 189 202 211 212 217 211 214 197 168 174 159 121 116 119 98 71 54 47 38 43 41 38 36 36 29 24 16 16 14 9 8
359 9 53 46 211 211 198 202 199 205 209 201 204 211 228 239 239 230 231 201 169 137 137 161 107 104 99 92 70 54 46 51 44 42 44 41 35 28 24 22 18 19 18
350 354 40 34 175 207 197 185 186 192 196 205 230 248 265 252 253 261 255 247 206 157 136 149 135 120 111 97 82 77 58 53 51 48 48 45 42 39 30 26 26 29 30
354 351 359 50 28 185 206 210 202 199 210 223 243 247 241 217 258 250 246 238 231 198 115 130 126 148 113 92 87 84 71 59 59 59 54 52 52 43 35 35 34 38 35
350 355 3 31 5 81 148 168 208 203 190 168 175 192 178 165 224 225 213 195 172 162 116 111 128 137 120 103 100 97 82 67 67 61 64 61 58 48 43 42 42 44 42
4 353 17 55 48 66 112 129 136 153 162 165 161 172 176 174 169 156 149 147 137 148 142 138 150 152 146 135 116 109 90 77 77 71 70 65 61 55 53 51 50 47 47
82 114 108 99 84 94 125 150 154 160 148 144 147 151 141 137 127 128 139 151 159 162 166 159 147 162 152 149 126 116 100 83 81 81 74 69 65 61 63 63 58 51 58
95 99 99 106 107 119 124 128 133 133 128 127 128 132 133 134 137 142 148 151 157 153 149 145 132 147 150 155 134 127 107 98 91 86 80 75 70 68 71 65 64 65 63
84 91 98 101 103 107 110 129 132 134 127 127 123 122 125 137 135 132 127 130 138 140 140 138 135 148 142 157 156 140 116 104 93 91 89 82 77 77 72 63 63 63 62
88 95 101 107 109 102 113 120 127 129 129 126 118 105 100 104 111 114 121 133 138 143 146 147 155 154 162 169 165 153 141 136 107 96 93 79 82 76 77 69 66 61 63
81 86 91 98 100 104 112 118 124 126 128 125 119 117 114 113 114 126 143 149 151 155 164 176 165 161 161 167 166 172 174 151 134 136 106 81 86 80 79 89 80 61 58
87 86 85 92 104 109 114 120 130 130 128 122 124 127 125 131 135 140 143 135 133 135 138 150 161 153 156 152 162 169 172 153 145 144 129 100 100 82 82 86 83 78 68
107 100 97 99 106 112 119 118 120 124 123 121 121 131 136 139 151 149 154 139 125 117 134 147 149 150 158 157 156 158 153 150 148 171 156 140 137 106 86 82 87 79 73
117 118 117 113 116 115 117 118 131 144 142 138 136 131 142 152 152 144 152 147 138 133 134 134 135 145 157 173 164 163 163 172 142 141 171 162 170 158 130 85 96 100 71